Location: Fornova de Taro
(44.7000°N, 10.1000°E)
Time: 19:40:15
(UTC+00:00)

Cosmos 2333 Rocket - Pass Details

Date: 26 May 2022
Orbit: 839 x 863 km, 70.8° (Epoch: 02 July)

Event Time Altitude Azimuth Distance (km) Brightness Sun altitude
Exits shadow 00:19:42 14° 265° (W) 2,213 4.2 -22.7°
Maximum altitude 00:23:17 24° 311° (NW) 1,692 4.0 -22.5°
Drops below altitude 10° 00:27:48 10° 4° (N) 2,476 5.7 -22.2°
Sets 00:30:47 0° 19° (NNE) 3,420 6.9 -22.1°
